STARLINK-34330, 64227

Orbit data source: Space-Track

STARLINK-34330, 64227 is a payload satellite owned by SpaceX/Seattle (US) in LEO that was launched on Sat, 31 May 2025 UTC via an FALCON 9 launch vehicle from the Air Force Western Test Range (AFWTR). Payload-class satellites include a variety of spacecraft equipped with specific instruments for various scientific and technological missions. These include communications satellites like Starlink; space stations such as the ISS; scientific satellites like the Hubble; Earth observation satellites from companies like Planet Labs, Umbra, and HawkEye 360; GPS; miniature CubeSats for education and research; and military/defense satellites.

Loading next visibility...
Identifier
64227, 2025-117AA
Orbit
LEO
Country
Flag of USUS
Related business
Manufacturer
SpaceX/Seattle
Mission
Operational Commercial Communications
Bus & Motor
STARLINK V2MO, Unknown motor
Mass
575 kg wet, ~530 kg dry
Launch date (UTC)
2025-05-31 (1 year ago)
Launch vehicle
FALCON 9
Launch site
Air Force Western Test Range (AFWTR)
Object type
Payload
Rocket body
Debris
Shape & HBR
Box + 1 Pan, 17.7 m
Radar Cross Section
41.120 m², Large (>1 m²)

Expand to show TLE details & history
Last TLE update: 14 hours ago

TLE from 14 hours ago
0 STARLINK-34330
1 64227U 25117AA  26235.70719992  .00021084  00000-0  63304-3 0  9993
2 64227  53.1612 343.3326 0001097  83.4125 276.7003 15.34417555 70108
Epoch: 2026-08-23T16:58Z
TLE epoch observation values (Epoch: 2026-08-23T16:58:22.073Z)
Latitude
0.00004°
Longitude
116.74127°
Altitude
463.465 km
Speed
7.636 km/s
True Right ascension
22h 53m 19s
True Declination
0° 00' 00"
Sunlit
Object was in full shadow at epoch
Visualization orbit readout
Latitude
Unknown
Longitude
Unknown
Altitude
Unknown
Speed
Unknown
Apparent Right ascension
Unknown
Apparent Declination
Unknown
Sunlit
N/A
Visualization observer readout
Local Sidereal Time
21:43:37
Azimuth
Unknown
Elevation
Unknown
Doppler factor
Unknown
Orbital elements
Apogee altitude
463.658 km
Perigee altitude
462.157 km
Semi-major axis
6,841.045 km
Eccentricity
0.00011
Inclination
53.1612°
RAAN
343.3326°
Arg. of periapsis
83.4125°
True anomaly
276.68781°
Mean anomaly
276.7003°
Eccentric anomaly
276.69406°
Mean motion
3.83583 °/min
Orbital period
93.85 mins
BSTAR
0.00063304
Loading maneuver chart data...
Computing Atmospheric mass density...
Loading historical data...
Loading historical data...
Loading historical data...
Loading historical data...
Loading historical data...
Loading historical data...
Loading historical data...

Documentation

Showing up to 5 results
|